Regional Weather Roundup
Issued by NWS Goodland, KS

Home | Current Version | Previous Version | Graphics & Text | Print | Product List | Glossary On
Versions: 1 2 3 4 5 6 7 8 9 10 11 12 13 14 15 16 17 18 19 20 21 22 23 24 25 26 27 28 29 30 31 32 33 34 35 36 37 38 39 40 41 42 43 44 45 46 47 48 49 50
000
ASUS43 KGLD 242059
RWRGLD

GOODLAND FORECAST AREA HOURLY WEATHER ROUNDUP
NATIONAL WEATHER SERVICE GOODLAND KS
300 PM MDT FRI MAR 24 2017

...OFFICIAL OBSERVATIONS...

CITY           SKY/WX    TMP DP  RH WIND       PRES   REMARKS
GOODLAND KS    CLOUDY    39  37  92 N30G38    29.99R
HILL CITY KS   CLOUDY    47  43  86 N21       29.93R
IMPERIAL NEB   LGT RAIN  44  39  82 N20       30.06R
MCCOOK NEB     LGT RAIN  41  40  96 N14       30.01R FOG
AKRON CO       CLOUDY    46  35  65 N24       30.09R
BURLINGTON CO  CLOUDY    36  35  96 N23G32    30.02S
LIMON CO       MIX PCPN  37  35  92 N16       30.10R
$$

...UNOFFICIAL OBSERVATIONS...

CITY           SKY/WX    TMP DP  RH WIND       PRES   REMARKS
LENORA KS        N/A     43  32  65 N12G32      N/A
NORTON KS      CLOUDY    41  36  81 N16G28    29.94R
SHARON SPRINGS   N/A     42  40  94 N17G31      N/A
TRENTON NEB      N/A     40  32  73 NE7         N/A
YUMA CO        DRIZZLE   41  36  81 N20G26    30.09R
$$




USA.gov is the U.S. government's official web portal to all federal, state and local government web resources and services.